STARLINK-36064

Last updated on Fri Dec 19 2025 00:02:08 GMT+0000 (Coordinated Universal Time)

1 66899U 25283X 25352.58336806 -.01550187 00000+0 -10274-1 0 9997 2 66899 53.1547 44.3467 0001166 67.7094 99.0992 15.77854200 3303
UTC large
Height (km)
Speed (km/s)
/
Latitude / Longitude
Inclination (degrees)
Orbital Period (minutes)
Azimuth
Elevation
Range (km)
Doppler Factor

Next 0 passes for location: London (51.5072 / 0.1276)

Sorry there are no passes over London.